Weather History for Altus AFB, OK

Change the Weather History Date:

Tuesday, January 8, 2013

  Actual Average Record
Temperature  
Mean Temperature 39 °F -  
Max Temperature 51 °F 48 °F 78 °F (2002)
Min Temperature 27 °F 26 °F 19 °F (2007)
Degree Days  
Heating Degree Days 26    
Moisture  
Dew Point 36 °F    
Average Humidity 78    
Maximum Humidity 100    
Minimum Humidity 60    
Precipitation  
Precipitation 0.00 in - - ()
Sea Level Pressure  
Sea Level Pressure 30.06 in    
Wind  
Wind Speed 5 mph (SE)    
Max Wind Speed 10 mph    
Max Gust Speed -    
Visibility 10 miles    
Events      
Averages and records for this station are not official NWS values.
T = Trace of Precipitation, MM = Missing Value Source: NWS Daily Summary

Daily Weather History Graph

Daily Weather History Graph

Search for Another Location

Airport:

Trip Planner

Search our weather history database for the weather conditions in past years. The results will help you decide how hot, cold, wet, or windy it might be!

Date:

Astronomy

Jan. 08, 2013 Rise Set
Actual Time 7:44 AM CST 5:43 PM CST
Civil Twilight 7:17 AM CST 6:11 PM CST
Nautical Twilight 6:45 AM CST 6:42 PM CST
Astronomical Twilight 6:15 AM CST 7:12 PM CST
Moon 4:20 AM CST (1/8) 2:46 PM CST (1/8)
Length of Visible Light 10h 53m
Length of Day
9h 58m
Waning Crescent, 13% of the Moon is Illuminated
Jan 8
Waning Crescent
Jan 11
New
Jan 18
First Quarter
Jan 26
Full
Feb 3
Last Quarter

Hourly Weather History & Observations

Time (CST) Temp. Windchill Dew Point Humidity Pressure Visibility Wind Dir Wind Speed Gust Speed Precip Events Conditions
12:55 AM 30.4 °F 25.6 °F 27.0 °F 87% 30.06 in 10.0 mi ESE 4.6 mph - N/A   Partly Cloudy
1:55 AM 31.5 °F 25.8 °F 27.9 °F 87% 30.06 in 10.0 mi SE 5.8 mph - N/A   Clear
2:55 AM 27.9 °F 20.6 °F 26.1 °F 93% 30.05 in 10.0 mi East 6.9 mph - N/A   Clear
3:55 AM 30.0 °F 26.5 °F 27.7 °F 91% 30.04 in 10.0 mi ESE 3.5 mph - N/A   Clear
4:55 AM 27.7 °F 23.8 °F 26.8 °F 96% 30.05 in 10.0 mi SE 3.5 mph - N/A   Clear
5:55 AM 27.1 °F 21.8 °F 26.8 °F 99% 30.04 in 10.0 mi ESE 4.6 mph - N/A   Clear
6:55 AM 27.5 °F 23.6 °F 27.1 °F 99% 30.06 in 10.0 mi ESE 3.5 mph - N/A   Clear
7:04 AM 28.4 °F - 28.4 °F 100% 30.06 in 10.0 mi Calm Calm - N/A   Mostly Cloudy
7:55 AM 32.2 °F 28.9 °F 31.8 °F 99% 30.06 in 10.0 mi NNE 3.5 mph - N/A   Overcast
8:47 AM 44.6 °F 41.4 °F 35.6 °F 71% 30.08 in 10.0 mi SE 5.8 mph - N/A   Scattered Clouds
8:55 AM 44.1 °F 40.8 °F 34.5 °F 69% 30.08 in 10.0 mi SE 5.8 mph - N/A   Scattered Clouds
9:13 AM 37.4 °F 33.8 °F 33.8 °F 87% 30.09 in 10.0 mi SE 4.6 mph - N/A   Mostly Cloudy
9:55 AM 39.9 °F 35.8 °F 35.8 °F 85% 30.09 in 10.0 mi SE 5.8 mph - N/A   Overcast
10:55 AM 45.1 °F 39.9 °F 35.6 °F 69% 30.09 in 10.0 mi SSE 10.4 mph - N/A   Overcast
11:55 AM 49.1 °F - 35.8 °F 60% 30.04 in 10.0 mi South 10.4 mph - N/A   Overcast
12:55 PM 51.1 °F - 37.6 °F 60% 30.02 in 10.0 mi South 9.2 mph - N/A   Overcast
1:55 PM 51.3 °F - 38.8 °F 63% 30.01 in 10.0 mi South 9.2 mph - N/A   Overcast
2:33 PM 51.8 °F - 39.2 °F 62% 30.01 in 10.0 mi South 8.1 mph - N/A   Overcast
2:46 PM 51.8 °F - 39.2 °F 62% 30.02 in 10.0 mi South 6.9 mph - N/A   Overcast
2:55 PM 51.8 °F - 39.7 °F 63% 30.02 in 10.0 mi South 9.2 mph - N/A   Overcast
3:22 PM 51.8 °F - 39.2 °F 62% 30.02 in 0.2 mi SSE 4.6 mph - N/A   Haze
3:31 PM 51.8 °F - 39.2 °F 62% 30.02 in - Calm Calm - N/A   Overcast
3:32 PM 51.8 °F - 39.2 °F 62% 30.02 in - Calm Calm - N/A   Overcast
3:55 PM 51.8 °F - 41.0 °F 67% 30.13 in 10.0 mi SSE 5.8 mph - N/A   Overcast
4:05 PM 51.8 °F - 41.0 °F 67% 30.02 in 10.0 mi SSE 4.6 mph - N/A   Overcast
4:55 PM 51.3 °F - 40.1 °F 66% 30.04 in 10.0 mi SE 3.5 mph - N/A   Overcast
5:55 PM 50.4 °F - 41.0 °F 70% 30.04 in 10.0 mi East 3.5 mph - N/A   Overcast
6:55 PM 48.4 °F - 41.9 °F 78% 30.07 in 10.0 mi East 4.6 mph - N/A   Overcast
7:55 PM 48.0 °F - 41.9 °F 79% 30.08 in 10.0 mi East 3.5 mph - N/A   Overcast
8:21 PM 48.2 °F - 42.8 °F 82% 30.08 in 10.0 mi ESE 4.6 mph - N/A   Overcast
8:55 PM 47.7 °F - 42.1 °F 81% 30.08 in 10.0 mi ESE 4.6 mph - N/A   Overcast
9:35 PM 46.4 °F - 42.8 °F 87% 30.09 in 10.0 mi Calm Calm - N/A   Scattered Clouds
9:55 PM 45.7 °F 44.4 °F 41.2 °F 84% 30.10 in 10.0 mi North 3.5 mph - N/A   Partly Cloudy
10:55 PM 43.2 °F 41.5 °F 40.3 °F 90% 30.14 in 10.0 mi North 3.5 mph - N/A   Scattered Clouds
11:55 PM 44.8 °F 41.6 °F 41.4 °F 88% 30.15 in 10.0 mi North 5.8 mph - N/A   Overcast